Regional Weather Roundup
Issued by NWS Charleston, SC

Current Version | Previous Version | Text Only | Print | Product List | Glossary Off
Versions: 1 2 3 4 5 6 7 8 9 10 11 12 13 14 15 16 17 18 19 20 21 22 23 24 25 26 27 28 29 30 31 32 33 34 35 36 37 38 39 40 41 42 43 44 45 46 47 48 49 50

000
ASUS42 KCHS 262025
RWRCHS

REGIONAL WEATHER ROUNDUP
NATIONAL WEATHER SERVICE CHARLESTON SC
300 PM EST WED NOV 26 2014

NOTE: "FAIR" INDICATES FEW OR NO CLOUDS BELOW 12,000 FEET WITH NO
SIGNIFICANT WEATHER AND/OR OBSTRUCTIONS TO VISIBILITY.

NOT ALL STATIONS ARE QUALITY CONTROLLED BY THE NATIONAL
WEATHER SERVICE. USE DATA WITH CAUTION...ESPECIALLY
DEWPOINT OBSERVATIONS.

SCZ027-030-031-034>040-042>050-262100-
...SOUTHEAST SOUTH CAROLINA...

CITY           SKY/WX    TMP DP  RH WIND       PRES   REMARKS
N CHARLESTON   MOSUNNY   56  48  74 W10       30.02S
WATERFRONT PRK   N/A     54 N/A N/A NW8G16      N/A
MOUNT PLEASANT NOT AVBL
JOHNS ISLAND   PTCLDY    55  55 100 NW9       30.03R
PINOPOLIS        N/A     54  48  82 NW10      29.94R
MONCKS CORNER  MOCLDY    54  52  94 CALM      30.02S
SUMMERVILLE    MOCLDY    55  48  76 NW6       30.04R
BEAUFORT MCAS  MOSUNNY   58  47  66 W14G21    30.05R
BEAUFORT ARPT  MOCLDY    57  50  77 W9        30.04R
HILTON HEAD IS MOSUNNY   57  46  67 W7G17     30.06R
WALTERBORO     MOCLDY    59  46  63 NW6       30.04R
ALLENDALE      FAIR      59  46  63 VRB6      30.03R

...SOUTHERN MIDLANDS AND PEE DEE...

CITY           SKY/WX    TMP DP  RH WIND       PRES   REMARKS
GEORGETOWN     NOT AVBL
KINGSTREE      NOT AVBL
ORANGEBURG     MOSUNNY   56  43  61 NW7       30.02R
BARNWELL       FAIR      59  46  63 NW7       30.03S
AIKEN          FAIR      57  43  58 W9        30.05R
MANNING        NOT AVBL
COLUMBIA       MOSUNNY   56  42  59 NW8       30.01R
SUMTER         CLOUDY    54  43  65 NW8       30.00R
FLORENCE       CLOUDY    51  45  79 NW7       30.00R
MYRTLE BEACH   CLOUDY    54  46  76 NW12      29.97R
N MYRTLE BEACH CLOUDY    53  47  79 NW10G17   29.96R

$$

GAZ063-065-086>088-099>101-113>116-118-119-134>141-150-262100-
...SOUTHEAST GEORGIA...

CITY           SKY/WX    TMP DP  RH WIND       PRES   REMARKS
SAVANNAH ARPT  MOSUNNY   61  42  49 W15       30.05S
HUNTER AAF     SUNNY     61  45  56 W14       30.03S
FORT STEWART   SUNNY     61  43  51 W15       30.06R
STATESBORO     NOT AVBL
SYLVANIA       CLEAR     60  44  56 W9G17     30.06R
CLAXTON        FAIR      63  18  17 W8        30.07R

...CSRA...CENTRAL AND FAR SOUTHEAST GEORGIA...

CITY           SKY/WX    TMP DP  RH WIND       PRES   REMARKS
THOMSON        SUNNY     60  42  50 W7G16     30.08R
AUGUSTA-BUSH   MOSUNNY   60  40  47 NW10      30.02S
AUGUSTA-DANIEL MOSUNNY   59  39  47 VRB6      30.03S
SWAINSBORO     FAIR      63  37  39 W8G18     30.07R
VIDALIA        SUNNY     61  36  39 W12G20    30.08R
HAZLEHURST     FAIR      62  35  37 NW6G16    30.08S
ALMA           SUNNY     60  33  36 NW16G22   30.09R
WAYCROSS       SUNNY     64  40  40 NW9       30.10S
JESUP          FAIR      63  41  45 NW7G17    30.08S
BAXLEY         FAIR      63  34  34 W12G18    30.09R
BRUNSWICK      SUNNY     61  41  48 W10G17    30.09R
SAINT SIMONS   SUNNY     61  44  53 W9G16     30.08R

$$

SCZ027-028-034-036>038-045-046-048>050-GAZ119-141-262100-
...LAKE AND SUPPLEMENTAL COASTAL OBSERVATIONS...

STATION/POSITION TIME  TEMP    WIND        PRES    WAVE   SWELL
                       AIR SEA DIR/SP/G            HT/PER HT/PER/DIR
                 (UTC) (F)     (DEG/KT/KT) (MB)    (FT/S) (FT/S/D)
UPR LAKE MARION  NOT AVBL
WINYAH BAY       2000   52     300/  9     1015.0S
LAKE MURRAY      2000   55     280/  3/  8 1015.6S
ACE BASIN NERRS  2000   56     310/  3     1017.0R
FORT PULASKI     2000   57     290/ 12/ 14 1017.8
SAPELO ISLAND    2000   61     280/ 10     1018.0S

$$

ANZ835-935-AMZ111-154-330-350-352-354-370-450-454-472-262100-
...C-MAN AND BUOY OBSERVATIONS...

STATION/POSITION TIME  TEMP    WIND        PRES    WAVE   SWELL
                       AIR SEA DIR/SP/G            HT/PER HT/PER/DIR
                 (UTC) (F)     (DEG/KT/KT) (MB)    (FT/S) (FT/S/D)
FOLLY BEACH CMAN 2000   55     290/  5/  9 1017.1R
BUOY 41004       2000   58 74  290/ 19/ 27 1015.0R   6/ 5   3/ 9
BUOY 41008       2000   58 64  300/ 16/ 17 1018.0R   3/10   2/280/10
CAPERS NEARSHORE 1900   54     320/ 17/ 19   N/A
FRIPP NEARSHORE  NOT AVBL


STATION/POSITION TIME  TEMP    WIND        PRES    WAVE   SWELL
                       AIR SEA DIR/SP/G            HT/PER HT/PER/DIR
                 (UTC) (F)     (DEG/KT/KT) (MB)    (FT/S) (FT/S/D)
5E ST. MARYS GA  2000      63                N/A     3/10
FRYING PAN BUOY  2000   54 71  300/ 23/ 29 1013.0R   7/ 6   3/150/ 8
BUOY 41025       2000   60     280/ 16/ 21 1006.7R  12/ 9   8/170/ 9
CAPE LOOKOUT NC  2000   50     290/ 19/ 22 1011.2R
BUOY 41002       1950   73 73  220/ 21/ 25 1011.6R  10/ 8
BUOY 41010       2000   70 78  310/ 21/ 25 1016.1R   8/ 9
ST AUGUSTINE FL  2000   58     300/ 10/ 14 1020.1R


$$


USA.gov is the U.S. government's official web portal to all federal, state and local government web resources and services.